Location: Newark
(3.8581°S, 32.4250°W)
Time: 15:05:21
(UTC+00:00)

N. Korean satellite - Visible Passes

Search period start: 19 September 2019 00:00
Search period end: 29 September 2019 00:00
Orbit: 455 x 509 km, 97.2° (Epoch: 18 September)

Date Brightness Start Highest point End Pass type
(mag) Time Alt. Az. Time Alt. Az. Time Alt. Az.
19 Sep 9.1 07:13:02 10° NE 07:15:55 25° ESE 07:18:51 10° SSE visible
19 Sep 9.9 20:32:24 10° SW 20:34:43 16° WSW 20:36:59 10° WNW visible
22 Sep 7.5 07:30:12 10° NNE 07:33:35 52° ESE 07:37:02 10° S visible
23 Sep 9.6 07:05:52 10° NE 07:08:27 19° ESE 07:11:04 10° SSE visible
23 Sep 9.8 20:24:31 10° SSW 20:27:16 20° WSW 20:29:58 10° NW visible
26 Sep 8.2 07:22:47 10° NNE 07:26:05 38° ESE 07:29:26 10° S visible
26 Sep 10.6 20:44:17 10° WSW 20:44:52 10° WSW 20:45:28 10° W visible
27 Sep 9.9 06:58:50 10° ENE 07:00:57 15° ESE 07:03:05 10° SE visible
